Probability
6 5 4 3 1 0 0 0 0 0 0 0 0 0 0 0 0 0 0 0 1 2 2 1 0 0 0 0 0 0 0 0 0 0 0 0 0 0 0 0 0 0 0 0 0 0 1 1 1
6 6 5 3 1 0 0 0 0 0 0 0 0 0 0 1 1 1 0 1 2 3 2 1 0 0 0 0 0 0 0 0 0 0 0 0 0 0 0 0 0 0 0 0 0 0 0 0 0
5 4 3 2 0 0 0 0 0 0 0 0 0 0 1 2 2 1 0 1 2 3 2 1 1 0 0 0 0 0 0 0 0 0 0 0 0 0 0 0 0 0 0 0 0 0 0 0 0
2 2 1 0 0 0 0 0 0 0 0 0 0 0 1 2 2 1 0 1 2 2 1 1 1 0 0 0 0 0 0 0 0 0 0 0 0 0 0 0 0 0 0 0 0 0 0 0 0
1 1 0 0 0 0 0 0 0 0 0 0 0 0 0 1 1 0 0 0 1 1 0 0 0 0 0 0 0 0 0 0 0 0 0 0 0 0 0 0 0 0 0 0 0 0 0 0 0
0 0 0 0 0 0 0 0 0 0 0 0 0 0 0 0 0 0 0 0 0 0 0 0 0 0 0 0 0 0 0 0 0 0 0 0 0 0 0 0 0 0 0 0 0 0 0 0 0
1 0 0 0 0 0 0 0 0 0 0 0 0 0 0 0 0 0 0 0 0 0 0 0 0 0 0 0 0 0 0 0 0 0 0 0 0 0 0 0 0 0 0 0 0 0 0 0 0
2 1 0 0 0 0 0 0 0 0 0 0 0 0 0 0 0 0 0 0 0 0 0 0 0 0 0 0 0 0 0 0 0 0 0 0 0 0 0 0 0 0 0 0 0 0 0 0 0
2 1 0 0 0 0 0 0 0 0 0 0 0 0 1 1 0 0 0 0 0 0 0 0 0 0 0 0 0 0 0 0 0 0 0 0 0 0 0 0 0 0 0 0 0 0 0 0 0
1 0 0 0 0 0 0 0 0 0 0 0 0 1 2 1 0 0 0 0 0 0 0 0 0 0 0 0 0 0 0 0 0 0 0 0 0 0 0 0 0 0 0 0 0 0 0 0 0
0 0 0 0 0 0 0 0 0 0 0 0 0 1 1 1 0 0 0 0 0 0 0 0 0 0 0 0 0 0 0 0 0 0 0 0 0 0 0 0 0 0 0 0 0 0 0 0 0
0 0 0 0 0 0 0 0 0 0 0 0 0 0 0 0 0 0 0 0 0 0 0 0 0 0 0 0 0 0 0 0 0 0 0 0 0 0 0 0 0 0 0 0 0 0 0 0 0
0 1 2 1 0 0 0 0 0 0 0 0 0 0 0 0 0 0 0 0 0 0 0 0 0 0 0 0 0 0 0 0 0 0 0 0 0 0 0 0 0 0 0 0 0 0 0 0 0
1 2 3 2 1 0 0 0 0 0 0 0 0 0 0 0 0 0 0 0 0 0 0 0 0 0 0 0 0 0 0 0 0 0 0 0 0 0 0 0 0 0 0 0 0 0 0 0 0
2 3 3 2 1 0 0 0 0 1 0 0 0 0 0 0 0 0 0 0 0 0 0 0 0 0 0 0 0 0 0 0 0 0 0 0 0 0 0 0 0 0 0 0 0 0 0 0 0
1 2 2 2 1 0 0 0 0 0 0 0 0 0 0 0 0 0 0 0 0 0 0 0 0 0 0 0 0 0 0 0 0 0 0 0 0 0 0 0 0 0 0 0 0 0 0 0 0
0 1 1 1 0 0 0 0 0 0 0 0 0 0 0 0 0 0 0 0 0 0 0 0 0 0 0 0 0 0 0 0 0 0 0 0 0 0 0 0 0 0 0 0 0 0 0 0 0
0 0 0 0 0 0 0 0 0 0 0 0 0 0 0 0 0 0 0 0 0 0 0 0 0 0 0 1 1 0 0 0 0 0 0 0 0 0 0 0 0 0 0 0 0 0 0 0 0
0 0 0 0 0 0 0 0 0 0 0 0 0 0 0 0 0 0 0 0 0 0 0 0 0 0 1 2 2 1 0 0 0 0 0 0 0 0 0 0 0 0 0 0 0 0 0 0 0
0 0 0 0 0 0 0 0 0 0 0 0 0 0 0 0 0 0 0 0 0 0 0 0 0 0 1 2 2 1 0 0 0 0 0 0 0 0 0 0 0 0 0 0 0 0 0 0 0
0 0 0 0 0 0 0 0 0 0 0 0 0 0 0 0 0 0 0 0 0 0 0 0 0 0 0 1 2 1 0 0 0 0 0 0 0 0 0 0 0 0 0 0 0 0 0 0 0
0 0 0 0 0 0 0 0 0 0 0 0 0 0 0 0 0 0 0 0 0 0 0 0 0 0 0 1 1 1 0 0 0 0 0 0 0 0 0 0 0 0 0 0 0 0 0 0 0
0 0 0 0 0 0 0 0 0 0 0 0 0 0 0 0 0 0 0 0 1 1 0 0 0 0 0 0 0 0 0 0 0 0 0 0 0 0 0 0 0 0 0 0 0 0 0 0 0
0 0 0 0 0 0 0 0 0 0 0 0 0 0 0 0 0 0 0 1 2 2 1 0 0 0 0 0 0 0 0 0 0 0 0 0 0 0 0 0 0 0 0 0 0 0 0 0 0
0 0 0 0 0 0 0 0 0 0 0 0 0 0 0 0 0 0 0 1 2 2 1 0 0 0 0 0 0 0 0 0 0 0 0 0 0 0 0 0 0 0 0 0 0 0 0 0 0
0 0 0 0 0 0 0 0 0 0 0 0 0 0 0 0 0 0 0 0 1 1 0 0 0 0 0 0 0 0 0 0 0 0 0 0 0 0 0 0 0 0 0 0 0 0 0 0 0
0 0 0 0 0 0 0 0 0 0 0 0 0 0 0 0 0 0 0 0 0 0 0 0 0 0 0 0 0 0 0 0 0 0 0 0 0 0 0 0 0 0 0 0 0 0 0 0 0
0 0 0 0 0 0 0 0 0 0 0 0 0 0 0 0 0 0 0 0 0 0 0 0 0 0 0 0 0 0 0 0 0 0 0 0 0 0 0 0 0 0 0 0 0 0 0 0 0
0 0 0 0 0 0 0 0 0 0 0 0 0 0 0 0 0 0 0 0 0 0 0 0 0 0 0 0 0 0 0 0 0 0 0 0 0 0 0 0 0 0 0 0 0 0 0 0 0
0 0 0 0 0 0 0 0 0 0 0 0 0 0 0 0 0 0 0 0 0 0 0 0 0 0 0 0 0 0 0 0 0 0 0 0 0 0 0 0 0 0 0 0 0 0 0 0 0
Wind_Speed
3 4 3 1 1 2 1 2 4 5 5 6 7 8 12 12 9 8 3 6 12 13 12 11 11 10 10 10 10 10 10 9 9 8 8 8 8 7 7 6 6 6 6 6 6 6 6 6 6
4 3 3 2 2 1 3 4 6 6 4 4 8 10 13 12 12 9 5 6 11 13 12 11 11 11 11 10 10 10 10 9 9 8 8 7 7 6 6 6 6 6 6 6 5 5 6 6 6
6 5 3 2 1 2 4 5 5 5 5 5 8 11 10 8 10 7 6 8 12 14 13 11 12 11 11 11 10 10 10 9 8 8 7 7 6 6 6 6 6 6 6 6 5 5 5 6 6
3 2 3 2 1 5 6 5 4 4 5 5 8 10 10 10 9 9 9 11 13 13 13 11 12 11 11 11 10 9 9 8 8 7 7 6 6 6 6 6 6 6 6 6 5 5 5 5 5
2 2 2 1 3 6 6 6 5 5 5 7 12 12 11 12 13 12 9 10 12 13 12 11 12 11 11 10 10 9 9 8 7 7 6 5 5 5 5 5 5 6 6 6 5 5 5 5 5
1 2 1 1 4 5 5 4 5 5 5 7 11 12 9 10 10 9 8 8 10 11 12 11 12 12 11 10 10 9 8 7 6 6 5 4 3 2 3 4 5 5 6 6 5 5 6 6 5
2 2 1 3 4 4 5 4 5 5 6 6 8 10 10 10 9 8 8 7 7 8 10 10 10 10 11 11 9 8 7 5 4 3 1 1 2 2 1 2 4 5 6 6 5 6 6 6 6
2 2 2 3 4 4 4 4 5 7 5 4 6 9 10 11 10 8 7 6 6 6 7 8 9 9 9 8 9 8 6 4 3 2 3 4 5 5 4 2 2 3 4 5 5 6 7 8 8
3 2 1 2 4 4 3 5 5 5 6 8 11 13 15 15 12 9 7 6 5 5 4 5 6 6 6 7 9 8 7 5 5 5 6 6 3 2 4 4 3 1 3 5 6 8 9 9 9
3 1 1 3 3 3 3 4 4 5 6 10 13 15 15 13 12 10 8 8 7 5 5 5 5 5 4 3 5 3 4 3 3 1 1 2 2 1 1 4 3 4 6 6 7 10 10 8 5
2 0 1 4 3 2 3 3 3 4 4 8 12 14 13 12 11 9 8 7 7 6 4 5 5 5 4 3 3 1 1 1 1 2 2 2 3 2 1 0 1 3 4 2 3 6 4 3 2
2 1 1 5 3 1 3 3 3 4 4 8 12 14 12 10 9 8 7 7 7 5 4 3 2 4 4 4 2 2 2 1 1 3 3 2 2 2 2 1 2 2 2 2 3 3 4 4 5
4 4 3 3 3 2 3 3 2 4 6 9 11 11 11 9 8 7 8 8 8 6 5 4 2 3 4 4 0 2 3 2 2 2 2 2 2 3 3 2 2 3 3 3 4 4 4 4 4
3 5 4 3 3 3 3 3 3 6 8 9 10 10 9 8 7 7 7 7 8 6 7 5 3 3 3 3 1 2 2 2 2 3 3 3 2 2 2 3 3 3 3 3 3 4 3 3 3
4 5 5 5 4 3 2 2 4 7 8 8 8 9 8 7 6 6 6 7 7 7 7 6 4 3 4 4 3 2 2 2 2 2 3 4 3 3 3 3 3 3 3 4 3 5 4 4 3
7 5 4 5 5 4 2 2 5 7 8 7 8 9 7 6 7 7 7 6 7 7 8 7 4 4 5 4 3 2 3 4 3 3 3 5 4 4 3 3 3 3 3 3 3 2 3 4 3
6 6 6 6 5 5 4 4 4 6 6 7 8 9 8 7 6 6 6 6 6 6 8 8 5 4 5 4 2 2 3 2 2 3 3 4 5 5 4 2 2 4 3 3 5 4 3 3 4
6 7 7 6 7 5 4 5 6 6 5 6 6 7 7 7 6 6 4 5 6 5 7 7 6 4 5 3 2 2 2 1 2 3 3 3 3 4 4 3 3 3 3 3 3 4 4 3 3
4 6 7 6 7 6 6 7 7 5 5 6 6 6 6 7 8 7 5 5 5 5 6 7 7 5 4 2 1 1 1 1 2 2 3 2 2 3 3 3 3 2 2 3 4 3 5 4 3
7 7 6 6 7 6 7 7 6 6 5 5 5 5 5 5 7 7 6 5 4 4 5 6 6 6 5 3 2 2 2 0 2 1 2 1 2 3 4 4 3 3 2 3 3 3 3 3 3
5 5 6 7 7 7 8 7 8 8 6 6 6 5 6 6 6 6 5 4 4 4 3 4 5 6 6 4 2 2 1 1 1 1 1 1 1 1 2 3 3 3 2 2 3 3 4 3 3
6 5 5 6 6 5 7 5 5 8 6 6 5 6 6 5 5 5 4 4 4 4 3 4 5 5 5 5 3 1 1 0 1 1 1 1 2 1 0 2 3 3 2 2 3 3 3 3 3
3 5 5 6 5 4 7 6 5 7 7 7 6 7 6 6 6 6 5 4 4 5 4 4 4 5 5 4 3 1 0 1 0 1 1 1 1 2 1 1 2 2 2 2 2 3 2 2 2
5 8 7 6 5 4 6 7 5 4 7 8 7 7 7 7 6 6 6 5 5 5 4 4 4 4 3 2 3 2 1 1 1 1 0 1 1 2 2 1 2 1 1 1 2 2 2 1 2
7 6 3 4 2 2 5 6 6 6 8 8 8 8 8 6 6 6 5 5 4 4 3 3 4 3 3 2 2 3 3 2 2 2 2 2 1 1 1 1 1 1 1 1 1 2 2 1 1
8 6 2 2 4 4 5 7 8 9 9 9 8 8 7 7 6 6 5 5 4 4 3 2 3 3 2 2 2 2 2 2 1 2 1 2 1 1 1 1 2 1 1 2 1 2 3 2 1
5 4 3 2 1 3 6 10 9 8 8 8 8 8 7 7 6 6 5 4 4 4 3 2 2 2 2 2 2 1 1 1 1 1 2 2 1 1 1 1 2 2 2 1 2 1 3 2 1
6 3 3 3 3 3 7 9 8 10 9 8 8 7 7 7 7 6 5 5 4 4 3 3 2 2 1 1 1 1 1 1 1 2 2 2 2 2 1 3 3 3 3 3 2 2 2 3 2
7 5 3 3 2 2 4 4 8 11 9 9 9 8 7 7 6 6 5 5 5 4 3 3 2 2 1 1 1 1 1 1 1 2 2 2 3 3 3 4 3 3 3 3 3 3 3 3 3
4 5 4 2 1 1 3 5 8 9 8 8 9 8 7 7 6 6 5 5 5 4 4 4 3 3 2 2 2 2 1 1 2 2 2 3 4 3 3 3 3 3 3 3 3 3 4 4 4
Wind_Direction
213 223 232 235 236 235 97 72 70 54 60 50 44 63 67 54 53 87 128 97 108 111 112 102 95 93 90 88 85 81 77 74 70 66 62 59 55 50 43 37 32 26 22 19 17 16 7 4 360
247 237 245 228 235 153 87 75 70 64 66 68 57 60 71 67 78 96 106 100 107 106 102 97 96 92 88 85 83 80 76 72 68 64 60 56 50 42 35 29 23 19 16 12 7 4 357 352 346
246 245 249 240 246 113 100 91 85 70 60 66 76 62 53 64 79 96 117 112 100 98 96 97 95 92 89 86 83 80 75 71 67 62 57 51 44 38 32 24 17 14 9 3 2 0 350 343 337
245 257 243 243 108 94 102 108 105 95 76 68 82 75 65 60 87 114 122 111 105 103 102 102 99 96 92 89 84 80 76 70 64 57 51 45 37 32 28 22 16 10 1 357 356 353 345 336 330
259 256 249 198 107 99 102 105 96 89 77 75 86 90 83 83 102 114 114 113 112 112 113 113 109 105 100 95 89 82 77 69 61 53 45 39 33 29 24 16 10 5 358 353 349 343 336 332 328
280 262 267 129 114 95 92 91 91 92 88 89 101 101 96 105 105 106 107 103 108 115 118 122 123 120 114 105 96 88 79 70 62 54 43 30 20 18 18 21 13 3 355 349 343 338 332 324 317
275 287 261 129 112 99 92 83 82 88 73 60 90 104 115 114 112 113 106 97 101 114 126 137 143 135 127 118 111 106 97 89 81 70 45 308 280 270 272 60 30 8 354 342 335 326 318 310 300
274 294 317 115 114 100 87 88 87 92 90 84 84 109 126 127 125 116 112 116 121 123 130 140 144 141 144 138 136 137 141 149 156 194 253 263 260 245 236 163 74 7 340 325 317 306 296 290 285
265 294 342 79 103 110 111 98 92 101 99 83 76 100 121 129 129 131 134 131 125 122 126 124 120 126 142 150 149 164 173 190 202 216 242 269 266 207 209 128 136 280 294 296 294 289 284 282 274
212 226 89 67 86 120 119 101 114 109 104 99 100 108 124 136 142 150 156 149 143 140 139 125 125 135 133 113 139 173 162 173 199 121 218 296 350 342 19 133 200 255 271 278 278 280 282 273 257
221 210 78 97 87 126 117 89 70 88 97 116 124 130 141 149 155 159 155 141 135 134 125 126 140 134 133 123 117 110 134 144 105 50 26 13 3 347 26 114 194 262 270 289 295 276 275 291 301
203 158 175 102 95 82 84 75 70 93 100 114 128 137 148 158 158 157 143 128 123 115 118 107 111 122 109 91 97 169 109 78 76 43 20 42 11 343 13 358 26 336 350 353 331 313 318 337 327
202 159 129 107 138 118 105 120 118 104 107 119 131 141 155 160 160 151 134 136 133 136 132 109 88 79 94 103 257 82 92 53 69 67 358 50 31 9 2 351 22 360 360 355 342 322 344 335 320
165 145 149 168 170 159 147 150 149 125 125 132 139 147 157 152 150 144 145 145 138 144 132 122 99 88 90 112 104 79 79 125 60 59 2 44 42 17 0 357 16 13 351 338 331 327 330 314 317
174 168 169 182 177 144 142 152 131 127 134 136 144 146 144 149 154 154 149 149 141 142 128 118 113 96 71 59 41 70 66 67 63 66 15 26 43 19 27 8 4 2 348 349 344 336 335 327 324
199 194 180 172 173 138 146 124 128 140 145 148 155 144 149 157 168 158 155 151 139 135 125 126 124 112 95 76 44 34 52 45 41 53 38 15 18 26 36 14 352 350 355 353 331 348 345 339 336
196 184 174 162 171 158 161 146 148 145 152 155 152 151 159 162 168 147 152 145 132 134 136 135 125 117 106 103 105 61 66 60 47 57 53 19 11 14 25 3 345 356 4 1 344 3 347 336 329
187 169 165 164 161 158 151 137 143 151 148 141 143 148 157 158 153 141 139 129 131 139 130 124 124 122 118 113 100 88 68 46 63 69 70 41 2 8 11 348 358 11 7 358 345 347 333 321 315
192 172 162 155 147 154 147 131 131 131 140 141 139 139 154 151 143 133 132 125 134 141 135 135 142 137 119 105 94 89 83 35 76 72 73 35 11 14 0 349 348 2 6 1 356 348 336 335 335
180 165 160 146 148 150 133 120 117 116 117 117 121 123 131 128 130 132 136 135 145 140 146 148 141 134 124 120 127 132 118 109 107 88 97 44 33 22 356 359 344 350 358 10 351 350 341 333 346
161 170 161 154 149 155 136 125 127 122 118 107 97 97 96 95 104 114 118 126 135 137 144 132 132 131 127 135 115 80 81 316 88 136 123 121 94 57 6 344 339 337 2 8 353 2 357 339 330
167 167 160 165 167 163 152 126 131 130 119 110 97 86 83 85 97 105 108 112 125 129 126 131 132 132 131 133 122 143 177 163 163 147 136 210 159 130 56 329 323 329 353 15 354 14 352 344 336
144 162 185 195 198 182 155 133 136 127 121 108 99 92 90 80 83 92 89 89 91 96 98 107 119 118 124 134 140 195 301 303 352 82 118 262 180 166 161 283 307 324 351 21 0 351 351 352 353
180 189 201 216 217 195 171 136 126 122 117 109 100 95 88 80 81 86 84 82 80 83 89 93 104 105 115 139 160 185 222 266 285 268 216 270 235 191 177 204 278 308 341 3 343 329 340 335 338
217 212 192 195 193 172 158 119 113 112 105 102 97 89 85 81 77 80 89 95 96 99 105 113 116 118 136 183 209 198 210 237 242 235 229 251 267 210 184 175 259 273 314 315 310 317 310 308 325
213 225 235 204 175 166 167 117 115 104 97 96 93 89 86 81 78 77 85 97 106 110 119 130 133 140 160 205 231 230 213 216 238 232 244 246 252 224 152 191 258 259 287 310 300 297 301 307 328
226 211 233 277 230 162 125 112 120 118 113 105 98 90 83 83 82 79 77 89 104 113 118 119 127 141 166 217 230 252 283 238 259 276 266 264 265 248 195 245 248 233 222 257 303 298 304 317 327
271 259 210 211 195 169 144 152 153 147 136 123 110 101 93 88 83 76 65 61 74 87 94 100 99 110 136 238 277 302 310 310 296 284 293 301 297 290 254 251 254 247 220 204 220 270 287 302 273
204 225 231 249 226 159 149 116 133 145 138 128 118 112 106 96 88 82 73 61 59 66 76 83 83 76 64 339 303 341 299 303 300 289 291 291 283 270 260 251 251 253 241 217 200 225 252 277 286
262 257 246 254 249 172 129 109 115 124 123 121 118 112 103 96 93 88 79 72 63 59 56 57 53 57 47 8 350 348 351 323 300 290 279 278 278 274 272 279 273 267 257 245 224 224 239 242 257